Annette Island, AK

7:19 PM AKDT on June 27, 2017 (GMT -0800)
Annette Island

Weather History for PANT - January, 2014

Change the Weather History Date:

Saturday, January 11, 2014

  Actual Average Record
Temperature  
Mean Temperature 32 °F 37 °F  
Max Temperature 37 °F 41 °F 53 °F (1981)
Min Temperature 27 °F 32 °F 8 °F (1998)
Degree Days  
Heating Degree Days 33 28  
Month to date heating degree days 311 308  
Since 1 July heating degree days 3024 3219  
Cooling Degree Days 0    
Month to date cooling degree days 0  
Year to date cooling degree days 0  
Moisture  
Dew Point 31 °F    
Average Humidity 0    
Maximum Humidity 0    
Minimum Humidity 0    
Precipitation  
Precipitation 0.24 in 0.34 in 1.50 in (1965)
Month to date precipitation 3.29 3.83  
Year to date precipitation 3.29 3.83  
Snow  
Snow 1.00 in 0.30 in 7.50 in (1974)
Month to date snowfall 1.0 2.9  
Since 1 July snowfall 10.1 14.6  
Snow Depth T in    
Sea Level Pressure  
Sea Level Pressure 29.15 in    
Wind  
Wind Speed 4 mph (NW)    
Max Wind Speed 14 mph    
Max Gust Speed 20 mph    
Visibility 7 miles    
Events Rain , Snow    
T = Trace of Precipitation, MM = Missing Value Source: NWS Daily Summary

Daily Weather History Graph

Daily Weather History Graph

Search for Another Location

Airport or City:

Trip Planner

Search our weather history database for the weather conditions in past years. The results will help you decide how hot, cold, wet, or windy it might be!

Date:

Astronomy

Jan. 11, 2014 Rise Set
Actual Time 8:05 AM AKST 3:43 PM AKST
Civil Twilight 7:22 AM AKST 4:27 PM AKST
Nautical Twilight 6:35 AM AKST 5:13 PM AKST
Astronomical Twilight 5:51 AM AKST 5:57 PM AKST
Moon 12:39 PM AKST (1/11) 4:08 AM AKST (1/11)
Length of Visible Light 9h 05m
Length of Day
7h 37m
Waxing Gibbous, 84% of the Moon is Illuminated
Jan 11
Waxing Gibbous
Jan 15
Full
Jan 23
Last Quarter
Jan 30
New
Feb 6
First Quarter

Hourly Weather History & Observations

Time (AKST) Temp. Windchill Dew Point Humidity Pressure Visibility Wind Dir Wind Speed Gust Speed Precip Events Conditions
12:53 AM 33.1 °F 28.7 °F 32.0 °F 96% 28.92 in 9.0 mi Variable 4.6 mph - 0.01 in Snow Light Snow
1:53 AM 32.0 °F 24.8 °F 32.0 °F 100% 28.92 in 3.0 mi NNW 8.1 mph - 0.02 in Snow Light Snow
2:20 AM 32.0 °F 24.8 °F 32.0 °F 100% 28.92 in 3.0 mi NNW 8.1 mph - 0.02 in Snow Light Snow
2:44 AM 32.0 °F 24.8 °F 32.0 °F 100% 28.93 in 3.0 mi NNW 8.1 mph - 0.04 in Snow Light Snow
3:01 AM 30.9 °F 23.5 °F 30.9 °F 100% 28.94 in 2.5 mi NNW 8.1 mph - 0.00 in Snow Light Snow
3:35 AM 30.9 °F 23.5 °F 30.9 °F 100% 28.95 in 2.0 mi NNW 8.1 mph - 0.05 in Snow Light Snow
3:45 AM 30.9 °F 24.3 °F 30.9 °F 100% 28.95 in 1.5 mi NNW 6.9 mph - 0.07 in Snow Light Snow
3:53 AM 30.9 °F 23.5 °F 30.9 °F 100% 28.96 in 1.5 mi NW 8.1 mph - 0.09 in Snow Light Snow
4:07 AM 30.9 °F 24.3 °F 30.9 °F 100% 28.96 in 2.0 mi NW 6.9 mph - 0.01 in Snow Light Snow
4:25 AM 30.9 °F 24.3 °F 30.9 °F 100% 28.96 in 3.0 mi NNW 6.9 mph - 0.02 in Snow Light Snow
4:32 AM 30.9 °F 23.5 °F 30.9 °F 100% 28.96 in 4.0 mi NNW 8.1 mph - 0.03 in Snow Light Snow
4:53 AM 32.0 °F 26.4 °F 32.0 °F 100% 28.98 in 5.0 mi NNW 5.8 mph - 0.04 in Snow Light Snow
5:24 AM 32.0 °F 27.5 °F 32.0 °F 100% 28.98 in 4.0 mi North 4.6 mph - 0.01 in Snow Light Snow
5:50 AM 30.2 °F 25.4 °F 30.2 °F 100% 28.99 in 5.0 mi NNW 4.6 mph - 0.02 in Snow Light Snow
5:53 AM 30.9 °F 26.2 °F 30.9 °F 100% 29.00 in 5.0 mi NNW 4.6 mph - 0.02 in Snow Light Snow
6:07 AM 32.0 °F 27.5 °F 32.0 °F 100% 29.00 in 7.0 mi NNW 4.6 mph - 0.00 in Snow Light Snow
6:15 AM 32.0 °F 26.4 °F 32.0 °F 100% 29.00 in 9.0 mi North 5.8 mph - 0.00 in Snow Light Snow
6:53 AM 32.0 °F 28.7 °F 32.0 °F 100% 29.03 in 10.0 mi NNW 3.5 mph - 0.01 in   Overcast
7:53 AM 30.9 °F 27.5 °F 30.9 °F 100% 29.06 in 10.0 mi WNW 3.5 mph - N/A   Clear
8:53 AM 30.9 °F 27.5 °F 30.9 °F 100% 29.11 in 10.0 mi NNW 3.5 mph - N/A   Overcast
9:53 AM 34.0 °F 25.5 °F 30.9 °F 89% 29.15 in 10.0 mi NW 11.5 mph - N/A   Mostly Cloudy
10:53 AM 34.0 °F 26.0 °F 30.0 °F 85% 29.18 in 10.0 mi NW 10.4 mph - N/A   Mostly Cloudy
11:53 AM 36.0 °F 29.6 °F 28.9 °F 76% 29.20 in 10.0 mi NW 8.1 mph - N/A   Clear
12:53 PM 35.1 °F - 30.0 °F 82% 29.23 in 10.0 mi Calm Calm - N/A   Mostly Cloudy
1:53 PM 35.1 °F - 32.0 °F 89% 29.26 in 10.0 mi Calm Calm - N/A   Mostly Cloudy
2:53 PM 36.0 °F 33.3 °F 33.1 °F 89% 29.31 in 10.0 mi West 3.5 mph - N/A   Mostly Cloudy
3:12 PM 34.0 °F 27.2 °F 32.0 °F 92% 29.32 in 9.0 mi WNW 8.1 mph 19.6 mph 0.00 in Rain , Snow Light Rain
3:23 PM 33.1 °F 30.0 °F 32.0 °F 96% 29.33 in 9.0 mi WNW 3.5 mph - 0.00 in   Scattered Clouds
3:53 PM 32.0 °F - 32.0 °F 100% 29.35 in 10.0 mi Calm Calm - 0.00 in   Mostly Cloudy
4:53 PM 28.9 °F - 28.9 °F 100% 29.38 in 10.0 mi Calm Calm - N/A   Partly Cloudy
5:53 PM 28.9 °F - 28.9 °F 100% 29.39 in 10.0 mi Calm Calm - N/A   Partly Cloudy
6:53 PM 30.9 °F 26.2 °F 30.9 °F 100% 29.42 in 10.0 mi West 4.6 mph - N/A   Clear
7:53 PM 28.9 °F - 28.9 °F 100% 29.44 in 10.0 mi Calm Calm - N/A   Clear
8:53 PM 28.0 °F - 28.0 °F 100% 29.47 in 10.0 mi Calm Calm - N/A   Clear
9:53 PM 28.9 °F - 28.9 °F 100% 29.49 in 10.0 mi Calm Calm - N/A   Clear
10:53 PM 30.0 °F 26.5 °F 30.0 °F 100% 29.49 in 10.0 mi ESE 3.5 mph - N/A   Scattered Clouds
11:53 PM 34.0 °F 28.0 °F 32.0 °F 92% 29.49 in 10.0 mi ESE 6.9 mph - N/A   Overcast